Home   Weather   Beirut   Past weeks

Flag for Lebanon Past Weather in Beirut, Lebanon — Yesterday and Last 2 Weeks

72 °F

Passing clouds.

Feels Like: 76 °F
Forecast: 70 / 78 °F
Wind: 5 mph from East

Location: Beirut Airport

Current Time: Oct 24, 2016 at 4:51:30 AM

Latest Report: Oct 24, 2016 at 4:00 AM

Visibility: 5 mi

Pressure: 30.04 "Hg

Humidity: 61%

Dew Point: 57 °F

Location of BeirutLocation

Past Weather in Beirut — Graph


Beirut Temperature Yesterday

Maximum temperature yesterday: 79 °F (at 2:00 PM)
Minimum temperature yesterday: 72 °F (at 12:00 AM)
Average temperature yesterday: 74 °F

High & Low Weather Summary for the Past Weeks

High88 °F (Oct 13, 3:00 PM)74% (Oct 9, 10:00 PM)30.09 "Hg (Oct 9, 10:00 PM)
Low70 °F (Oct 16, 6:00 AM)26% (Oct 14, 4:00 AM)29.95 "Hg (Oct 16, 4:00 PM)
Average77 °F56%30.01 "Hg
* Reported Oct 9 3:00 AM — Oct 24 3:00 AM, Beirut, Weather by CustomWeather, © 2016

Note: Actual official high and low records may vary slightly from our data, if they occured in-between our weather recording intervals... More about our weather records


Beirut Weather History for the Previous 24 Hours

Scroll right to see more
Time TempWeatherWind HumidityBarometerVisibility
3:00 AM
Mon, Oct 24
75 °FPassing clouds.7 mph57%30.07 "Hg5 mi
2:00 AM72 °FPassing clouds.3 mph65%30.07 "Hg5 mi
1:00 AM72 °FPassing clouds.5 mph65%30.07 "Hg5 mi
12:00 AM73 °FPassing clouds.3 mph65%30.07 "Hg5 mi
11:00 PM
Sun, Oct 23
73 °FPassing clouds.5 mph61%30.07 "Hg5 mi
10:00 PM73 °FPassing clouds.5 mph65%30.07 "Hg5 mi
9:00 PM73 °FPassing clouds.3 mph65%30.07 "Hg5 mi
8:00 PM75 °FPassing clouds.6 mph57%30.07 "Hg5 mi
7:00 PM75 °FPassing clouds.7 mph57%30.07 "Hg5 mi
6:00 PM77 °FPassing clouds.7 mph54%30.04 "Hg5 mi
5:00 PM77 °FPartly sunny.7 mph54%30.04 "Hg5 mi
4:00 PM79 °FPartly sunny.7 mph51%30.04 "Hg5 mi
3:00 PM77 °FPartly sunny.7 mph54%30.04 "Hg5 mi
2:00 PM79 °FPartly sunny.8 mph58%30.07 "Hg5 mi
1:00 PM77 °FPartly sunny.9 mph57%30.07 "Hg5 mi
12:00 PM77 °FPartly sunny.7 mph54%30.09 "Hg5 mi
11:00 AM77 °FPartly sunny.7 mph54%30.09 "Hg5 mi
10:00 AM77 °FPartly sunny.3 mph54%30.09 "Hg5 mi
9:00 AM73 °FPartly sunny.6 mph57%30.09 "Hg5 mi
8:00 AM72 °FPartly sunny.5 mph61%30.09 "Hg5 mi
7:00 AM72 °FPartly sunny.6 mph61%30.07 "Hg5 mi
6:00 AM72 °FPassing clouds.6 mph61%30.07 "Hg5 mi
5:00 AM72 °FPassing clouds.5 mph61%30.04 "HgN/A
4:00 AM72 °FPassing clouds.6 mph61%30.07 "HgN/A
Weather by CustomWeather, © 2016

See weather overviewHow to use our weather pages